Regional Weather Roundup
Issued by NWS Wakefield, VA

Home | Current Version | Previous Version | Text Only | Print | Product List | Glossary On
Versions: 1 2 3 4 5 6 7 8 9 10 11 12 13 14 15 16 17 18 19 20 21 22 23 24 25 26 27
000
ASUS41 KAKQ 241610
RWRAKQ

REGIONAL WEATHER ROUNDUP
NATIONAL WEATHER SERVICE WAKEFIELD VA
1200 PM EDT FRI OCT 24 2014

Note: "fair" indicates few or no clouds below 12,000 feet with no
significant weather and/or obstructions to visibility. * = Denotes
station may not report precipitation (e.g., rain,snow,etc.),
thunder or fog.

VAZ042-051-052>054-056-241700-
NORTHERN VIRGINIA

CITY           SKY/WX    TMP DP  RH WIND       PRES   REMARKS
WASH NATIONAL  CLOUDY    64  43  46 NW9       29.98F
DULLES         PTSUNNY   58  42  55 NW15G22   29.99F
FORT BELVOIR   MOSUNNY   63  43  48 NW20G25   29.98F
QUANTICO       PTSUNNY   63  40  42 N14G23    29.99F
FREDERICKSBRG* PTSUNNY   65  43  45 NW9       29.99S
STAFFORD*      PTSUNNY   62  38  41 NW18G24   30.02F
WARRENTON      MOSUNNY   63  46  53 NW9       29.99S
CULPEPER*      PTSUNNY   63  39  42 W5        30.00F
MANASSAS*      PTSUNNY   63  43  48 NW12G17   29.99F
LEESBURG*      PTSUNNY   61  46  59 NW12G18   30.00F
WINCHESTER     PTSUNNY   61  36  39 NW16      30.01F
FRONT ROYAL*   CLOUDY    61  41  48 NW3       30.00F
LURAY*         CLOUDY    61  45  55 S3        30.02F
$$

VAZ048-049-060>072-079>083-241700-
CENTRAL AND SOUTH CENTRAL VIRGINIA...AND NORTH CENTRAL NORTH CAROLINA

CITY           SKY/WX    TMP DP  RH WIND       PRES   REMARKS
RICHMOND       CLOUDY    63  42  46 NW12      30.00F
CHESTERFIELD*    N/A    N/A N/A N/A MISG        N/A
PETERSBURG*    CLOUDY    63  41  44 NW5       30.02S
HANOVER        PTSUNNY   62  45  53 W5        30.02F
TAPPAHANNOCK*  PTSUNNY   62  40  44 W8        30.00R
CHARLOTTSVILLE CLOUDY    61  39  44 N9        30.01S
ORANGE*        CLOUDY    61  45  55 CALM      30.02S
LOUISA*        CLOUDY    61  45  55 CALM      30.00S
FARMVILLE*     MOSUNNY   64  41  42 W3        30.00F
CREWE*         SUNNY     63  40  42 W6        30.02F
FORT PICKETT*  SUNNY     62  41  45 CALM      30.02F
LUNENBURG*     SUNNY     63  45  50 NW5       30.03S
SOUTH HILL*    SUNNY     66  43  42 W3        30.08S
LAWRENCEVILLE* SUNNY     64  45  50 NW3       30.02F
ROANOKE RAPIDS SUNNY     63  45  51 N6        30.03F
RALEIGH        MOSUNNY   63  44  50 CALM      30.05F
$$

VAZ088>098-241700-
SOUTHEAST VIRGINIA

CITY           SKY/WX    TMP DP  RH WIND       PRES   REMARKS
NORFOLK        PTSUNNY   63  44  50 N14G20    29.98S
VIRGINIA BEACH PTSUNNY   65  47  52 NW17G26   29.97R
NORFOLK NAVAL  PTSUNNY   65  46  50 NW14      29.99F
WEST POINT*    CLOUDY    64  43  46 NW6G18    29.99F
NEWPORT NEWS   CLOUDY    66  46  48 N9        29.99S
LANGLEY AFB    CLOUDY    61  46  57 NW12      29.98F
FORT EUSTIS    PTSUNNY   62  43  48 NW12      29.97F
WILLIAMSBURG*  CLOUDY    66  48  52 NW8       30.00F
HR EXEC AP*    PTSUNNY   63  46  55 N6G16     30.00F
FRANKLIN*      MOSUNNY   64  45  48 NW7       30.00F
WAKEFIELD      PTSUNNY   64  42  44 VRB7      30.00F
$$

VAZ020-022-025-037-045-241700-
WEST CENTRAL AND SOUTHWEST VIRGINIA

CITY           SKY/WX    TMP DP  RH WIND       PRES   REMARKS
STAUNTON*      CLOUDY    56  40  56 CALM      30.06F
HOT SPRINGS VA MOSUNNY   46  38  73 W12       30.05S
LYNCHBURG      MOSUNNY   60  43  53 W6        30.05F
DANVILLE       SUNNY     64  42  44 VRB3      30.05F
SOUTH BOSTON*  NOT AVBL
MARTINSVILLE   NOT AVBL
ROANOKE        PTSUNNY   60  41  49 SW6       30.08F
BLACKSBURG     PTSUNNY   55  46  71 W3        30.11F
DUBLIN*        PTSUNNY   56  44  63 NW3       30.12S
MARION*        PTSUNNY   55  43  63 W6        30.14F
HILLSVILLE*    PTSUNNY   52  40  63 N10       30.11S
RICHLANDS*     CLOUDY    52  43  73 NE5       30.12F
WISE*          CLOUDY    50  45  81 NE3       30.14S
ABINGDON*      PTSUNNY   54  44  69 SE3       30.11F
$$

MDZ021>025-VAZ099-100-241700-
SOUTHERN MARYLAND AND THE DELMARVA PENINSULA

CITY           SKY/WX    TMP DP  RH WIND       PRES   REMARKS
PATUXENT RIVER MOSUNNY   63  44  50 NW17G25   29.95S
BAY BRIDGE APT   N/A     63  43  48 NW15G21   29.93F
LEONARDTOWN    MOSUNNY   63  43  48 W10G16    29.96S
DOVER          SUNNY     64  46  53 NW21G26   29.87S
GEORGETOWN     MOSUNNY   64  45  49 NW9G21    29.90F
EASTON         NOT AVBL
CAMBRIDGE      MOSUNNY   63  45  51 NW14G20   29.92F
SALISBURY      MOSUNNY   66  46  48 NW16G23   29.91S
OCEAN CITY     MOSUNNY   64  47  53 NW21G26   29.89F
WALLOPS ISLAND MOSUNNY   64  47  53 N15G22    29.92S
ACCOMACK*      MOSUNNY   61  45  55 NW15G23   29.94S
$$

NCZ012>017-030>032-241700-
EASTERN NORTH CAROLINA

CITY           SKY/WX    TMP DP  RH WIND       PRES   REMARKS
ELIZABETH CITY MOSUNNY   67  48  50 N13G18    29.99R
AHOSKIE*       SUNNY     62  46  54 W3        30.03S
EDENTON*       MOSUNNY   65  47  52 N14       30.01S
CURRITUCK*     MOSUNNY   64  43  47 N13       29.98S
KILL DEVIL HLS MOSUNNY   62  47  59 NW10G16   29.98R
MANTEO         MOSUNNY   60  47  62 NW10G16   30.00R
CAPE HATTERAS  CLOUDY    62  50  64 NW9       30.00S
TARBORO*       MOSUNNY   65  47  53 NW5       30.04F
GOLDSBORO      MOSUNNY   64  51  61 VRB3      30.02F
WASHINGTON     SUNNY     62  48  59 W5        30.03F
GREENVILLE     MOSUNNY   63  46  55 N3        30.05F
NEW BERN       MOSUNNY   67  45  45 VRB5      30.04F
WILMINGTON     PTSUNNY   65  48  54 VRB5      30.05S
$$

VAZ048-241700-
ELSEWHERE

CITY           SKY/WX    TMP DP  RH WIND       PRES   REMARKS
HARRISBURG PA  SUNNY     63  41  44 NW17      29.92F
BALTIMORE      NOT AVBL
ANNAPOLIS      MOSUNNY   62  43  49 NW16G23   29.93F
ANDREWS AFB    MOSUNNY   62  44  51 NW17      29.95F
WILMINGTON DE  SUNNY     65  44  46 N21G28    29.89F
PHILADELPHIA   MOSUNNY   65  44  46 NW14      29.87F
WILDWOOD NJ*   PTSUNNY   61  45  55 NW9G16    29.89S
ATLANTIC CITY  PTSUNNY   62  46  55 NW13      29.85F
HENDERSON NC   MOSUNNY   64  42  45 CALM      30.04F
GREENSBORO     PTSUNNY   63  40  42 N3        30.06S
ROCKY MOUNT    MOSUNNY   65  46  50 VRB3      30.04F
FAYETTEVILLE   MOSUNNY   65  44  46 VRB3      30.05F
CHARLOTTE      PTSUNNY   64  40  41 VRB3      30.09S
$$

VAZ100-241700-
MARINE

STATION/POSITION TIME  TEMP    WIND        PRES    WAVE   SWELL
                       AIR SEA DIR/SP/G            HT/PER HT/PER
                 (UTC) (F)     (DEG/KT/KT) (MB)    (FT/S) (FT/S)
44066 TX TWR #4  1600   56 66  320/ 19/ 25 1008.2R   7/ 6   2/10
CAPE MAY NJ      1600   60 64  320/ 14/ 21 1011.2S
LEWES DE         1600   60 57  330/ 19/ 23 1011.9F
15NM E FENWICK I 1600   60 64  310/ 21/ 25 1011.1F   5/ 5   2/ 7
OCEAN-CITY-INLET 1600   61 62  340/ 16/ 19 1011.8F
WACHAPREAGUE VA  1600   62 59  290/  6/ 17 1013.6F
THOMAS POINT MD  1600   61 62  320/ 17/ 21 1014.3F
GOOSES REEF MD   1600   60     340/ 14/ 17 1014.3S
COVE POINT MD    1600   60     350/ 19/ 24 1013.5S
SOLOMONS ISLAND  1600      64                N/A
BISHOPS HEAD MD  1600   61 56  330/ 15/ 21 1013.1S
PINEY POINT MD   1600          330/ 19/ 21   N/A
POTOMAC MD       1600   60     310/ 17/ 19 1013.6S
CAMBRIDGE MD     1600   60 60  310/ 13/ 19 1013.1S
LEWISETTA VA     1600   61 59  330/ 12/ 16 1014.0S
RAPPAHANNOCK LGT 1600          320/ 20/ 23 1014.7R
STINGRAY PT      1600   61     310/ 12/ 16 1015.2R
YORK RVR RNG VA  1600   59     310/ 12/ 15 1014.8F
YORKTOWN VA      1600   59 64  320/ 19/ 21 1015.0F
JAMESTOWN VA     1600   59     340/ 12/ 14   N/A
DOMINION TERM VA 1600   60     320/ 14/ 17 1015.4F
KIPTOPEKE VA     1600      66  330/ 17/ 21   N/A
CHES BAY BRIDGE  1600   60 65  300/ 15/ 19 1014.8S
CHESAPEAKE LGHT  1500   59     320/ 22/ 24 1014.8R
WILLOUBY STN VA  1600   60     320/ 15/ 18 1014.2R
S CRANEY ISL VA  1600          300/ 12/ 17 1015.2S
CAPE HENRY BUOY  1600      67                N/A     5/ 8
1ST LANDING BUOY 1600   60     310/ 17/ 23 1014.8R
CAPE CHARLES BUO 1600      66                N/A     4/ 4   2/ 8
64NM E OF VA BCH 1600   61 67  330/ 17/ 21 1013.2R   7/ 5   3/ 8
DUCK PIER NC     1600   59 66  320/ 12/ 16 1014.3R
44100 DUCK FRF   1600      67                N/A     5/ 5
44056 DUCK FRF   1600                        N/A     4/ 7
OREGON INLET NC  1600   60 63  300/ 11/ 14 1015.3R
HATTERAS NC      1600   60 63  330/ 17/ 18 1016.1F
DIAMOND SHLS NC  1500   62     310/ 14/ 17 1016.0R   4/ 9   2/ 9
CAPE LOOKOUT NC  1500   62     340/  7/  9 1016.9R
$$



USA.gov is the U.S. government's official web portal to all federal, state and local government web resources and services.